Ashtabula, OH

3:15 AM EDT on March 29, 2017 (GMT -0400)
Ashtabula County

Weather History for KHZY - August, 2013

Change the Weather History Date:

Wednesday, August 7, 2013

  Actual Average (KGKJ) Record (KGKJ)
Temperature  
Mean Temperature 70 °F -  
Max Temperature 78 °F 79 °F 90 °F (1998)
Min Temperature 62 °F 56 °F 46 °F (1948)
Cooling Degree Days 4    
Growing Degree Days 20 (Base 50)    
Moisture  
Dew Point 62 °F    
Average Humidity 76    
Maximum Humidity 87    
Minimum Humidity 60    
Precipitation  
Precipitation 0.15 in - - ()
Sea Level Pressure  
Sea Level Pressure 29.94 in    
Wind  
Wind Speed 6 mph (South)    
Max Wind Speed 13 mph    
Max Gust Speed 22 mph    
Visibility 9 miles    
Events Rain    
Averages and records for this station are not official NWS values.
T = Trace of Precipitation, MM = Missing Value Source: NWS Daily Summary

Daily Weather History Graph

Daily Weather History Graph

Search for Another Location

Airport or City:

Trip Planner

Search our weather history database for the weather conditions in past years. The results will help you decide how hot, cold, wet, or windy it might be!

Date:

Astronomy

Aug. 07, 2013 Rise Set
Actual Time 6:23 AM EDT 8:33 PM EDT
Civil Twilight 5:52 AM EDT 9:03 PM EDT
Nautical Twilight 5:14 AM EDT 9:41 PM EDT
Astronomical Twilight 4:32 AM EDT 10:22 PM EDT
Moon 7:11 AM EDT (8/7) 8:37 PM EDT (8/7)
Length of Visible Light 15h 11m
Length of Day
14h 10m
New Moon, 1% of the Moon is Illuminated
Aug 7
New Moon
Aug 14
First Quarter
Aug 20
Full
Aug 28
Last Quarter
Sep 5
New

Hourly Weather History & Observations

Time (EDT) Temp. Dew Point Humidity Pressure Visibility Wind Dir Wind Speed Gust Speed Precip Events Conditions
12:53 AM 64.0 °F 57.0 °F 78% 29.96 in 10.0 mi SE 5.8 mph - N/A   Clear
1:53 AM 63.0 °F 55.9 °F 78% 29.97 in 10.0 mi Calm Calm - N/A   Clear
2:53 AM 62.1 °F 55.0 °F 78% 29.97 in 10.0 mi Calm Calm - N/A   Clear
3:53 AM 62.1 °F 55.9 °F 80% 29.98 in 10.0 mi South 3.5 mph - N/A   Overcast
4:53 AM 63.0 °F 55.9 °F 78% 29.96 in 10.0 mi SSE 8.1 mph - N/A   Scattered Clouds
5:53 AM 63.0 °F 57.0 °F 81% 29.95 in 10.0 mi SSE 6.9 mph - N/A   Mostly Cloudy
6:53 AM 64.0 °F 57.9 °F 80% 29.95 in 8.0 mi SSE 6.9 mph - N/A   Mostly Cloudy
7:53 AM 64.9 °F 59.0 °F 81% 29.96 in 9.0 mi SSE 6.9 mph - N/A   Scattered Clouds
8:53 AM 68.0 °F 60.1 °F 76% 29.96 in 10.0 mi SSE 6.9 mph - N/A   Partly Cloudy
9:53 AM 73.0 °F 61.0 °F 66% 29.96 in 10.0 mi South 10.4 mph - N/A   Clear
10:53 AM 77.0 °F 62.1 °F 60% 29.95 in 10.0 mi SSW 8.1 mph - N/A   Mostly Cloudy
11:53 AM 77.0 °F 63.0 °F 62% 29.95 in 10.0 mi South 12.7 mph - N/A   Overcast
12:53 PM 73.0 °F 64.0 °F 73% 29.95 in 10.0 mi South 4.6 mph - 0.01 in Rain Light Rain
1:53 PM 71.1 °F 66.0 °F 84% 29.95 in 2.5 mi SW 8.1 mph - 0.09 in Rain Rain
2:07 PM 71.6 °F 66.2 °F 83% 29.95 in 3.0 mi South 12.7 mph 21.9 mph 0.03 in Rain Light Rain
2:53 PM 72.0 °F 66.9 °F 84% 29.94 in 10.0 mi SSW 5.8 mph - 0.05 in   Clear
3:53 PM 73.0 °F 66.9 °F 81% 29.89 in 10.0 mi SSE 9.2 mph 18.4 mph 0.00 in   Mostly Cloudy
4:53 PM 75.9 °F 66.9 °F 74% 29.90 in 10.0 mi South 9.2 mph - N/A   Clear
5:53 PM 77.0 °F 63.0 °F 62% 29.90 in 10.0 mi SSW 8.1 mph - N/A   Clear
6:53 PM 75.9 °F 64.0 °F 67% 29.89 in 10.0 mi South 5.8 mph - N/A   Clear
7:53 PM 73.9 °F 64.0 °F 71% 29.92 in 10.0 mi South 6.9 mph - N/A   Clear
8:53 PM 71.1 °F 64.0 °F 78% 29.93 in 10.0 mi South 8.1 mph - N/A   Clear
9:53 PM 70.0 °F 64.0 °F 81% 29.93 in 10.0 mi Calm Calm - N/A   Clear
10:53 PM 69.1 °F 64.9 °F 87% 29.94 in 10.0 mi SE 4.6 mph - N/A   Scattered Clouds
11:53 PM 70.0 °F 64.9 °F 84% 29.95 in 10.0 mi South 9.2 mph - N/A   Mostly Cloudy